TimeEST,TemperatureF,Dew PointF,Humidity,Sea Level PressureIn,VisibilityMPH,Wind Direction,Wind SpeedMPH,Gust SpeedMPH,PrecipitationIn,Events,Conditions,WindDirDegrees,DateUTC
12:53 AM,42.1,21.0,43,30.08,10.0,SW,10.4,-,N/A,,Clear,220,2013-11-15 05:53:00
1:53 AM,41.0,21.9,47,30.07,10.0,SW,13.8,-,N/A,,Clear,220,2013-11-15 06:53:00
2:53 AM,39.0,23.0,53,30.09,10.0,SSW,10.4,-,N/A,,Clear,210,2013-11-15 07:53:00
3:53 AM,39.9,24.1,53,30.09,10.0,SW,10.4,-,N/A,,Clear,220,2013-11-15 08:53:00
4:53 AM,37.9,25.0,60,30.09,10.0,South,10.4,-,N/A,,Clear,190,2013-11-15 09:53:00
5:53 AM,37.9,25.0,60,30.08,10.0,South,11.5,-,N/A,,Clear,190,2013-11-15 10:53:00
6:53 AM,39.0,23.0,53,30.09,10.0,SSW,13.8,-,N/A,,Clear,210,2013-11-15 11:53:00
7:53 AM,39.9,24.1,53,30.09,10.0,South,10.4,-,N/A,,Clear,190,2013-11-15 12:53:00
8:53 AM,43.0,24.1,47,30.10,10.0,SSW,15.0,-,N/A,,Clear,210,2013-11-15 13:53:00
9:53 AM,45.0,25.0,46,30.10,10.0,SSW,13.8,-,N/A,,Clear,210,2013-11-15 14:53:00
10:53 AM,46.9,26.1,44,30.11,10.0,SSW,12.7,-,N/A,,Clear,210,2013-11-15 15:53:00
11:53 AM,46.9,25.0,42,30.09,10.0,SSW,17.3,-,N/A,,Clear,210,2013-11-15 16:53:00
12:53 PM,46.9,26.1,44,30.07,10.0,SSW,10.4,-,N/A,,Clear,210,2013-11-15 17:53:00
1:53 PM,48.0,26.1,42,30.06,10.0,SSW,13.8,-,N/A,,Clear,210,2013-11-15 18:53:00
2:53 PM,48.9,27.0,43,30.06,10.0,SW,16.1,-,N/A,,Clear,220,2013-11-15 19:53:00
3:53 PM,48.0,28.9,48,30.06,10.0,SSW,11.5,-,N/A,,Clear,210,2013-11-15 20:53:00
4:53 PM,46.0,28.9,51,30.06,10.0,South,11.5,20.7,N/A,,Clear,190,2013-11-15 21:53:00
5:53 PM,45.0,30.0,56,30.06,10.0,South,8.1,-,N/A,,Overcast,190,2013-11-15 22:53:00
6:53 PM,44.1,30.0,58,30.06,10.0,South,11.5,-,N/A,,Partly Cloudy,180,2013-11-15 23:53:00
7:53 PM,44.1,30.9,60,30.07,10.0,SSW,8.1,-,N/A,,Clear,200,2013-11-16 00:53:00
8:53 PM,43.0,32.0,65,30.08,10.0,South,9.2,-,N/A,,Clear,190,2013-11-16 01:53:00
9:53 PM,39.9,32.0,73,30.09,10.0,South,10.4,-,N/A,,Clear,190,2013-11-16 02:53:00
10:53 PM,39.9,32.0,73,30.09,10.0,South,10.4,-,N/A,,Clear,190,2013-11-16 03:53:00
11:53 PM,42.1,34.0,73,30.10,10.0,South,13.8,-,N/A,,Clear,190,2013-11-16 04:53:00